Location: Unspecified
(50.7693°N, 0.0000°E)
Time: 21:08:37
(UTC+00:00)

Transit 2A - Pass Details

Date: 04 July 2019
Orbit: 594 x 965 km, 66.7° (Epoch: 16 July)

Event Time Altitude Azimuth Distance (km) Brightness Sun altitude
Rises 05:44:37 0° 322° (NW) 3,451 9.2 14.5°
Reaches altitude 10° 05:47:13 10° 322° (NW) 2,455 8.5 14.9°
Maximum altitude 05:52:51 87° 235° (SW) 778 6.3 15.8°
Drops below altitude 10° 05:57:52 10° 146° (SE) 2,188 8.7 16.5°
Sets 06:00:05 0° 146° (SE) 3,049 9.4 16.9°
